Location: Bletchingley
(51.2333°N, 0.1000°W)
Time: 07:04:04
(UTC+00:00)

Cosmos 2263 Rocket - Pass Details

Date: 18 September 2020
Orbit: 822 x 849 km, 71.0° (Epoch: 19 October)

Event Time Altitude Azimuth Distance (km) Brightness Sun altitude
Rises 19:31:44 0° 217° (SW) 3,349 5.5 -13.8°
Reaches altitude 10° 19:34:10 10° 220° (SW) 2,421 4.8 -14.2°
Maximum altitude 19:39:41 67° 303° (WNW) 897 2.6 -15.0°
Drops below altitude 10° 19:45:17 10° 27° (NNE) 2,450 4.6 -15.8°
Sets 19:47:46 0° 30° (NNE) 3,392 5.3 -16.1°
